Location: Poigny-la-Forêt
(48.6876°N, 1.7701°E)
Time: 16:21:41
(UTC+02:00)

ISS - Pass Details

Date: 23 May 2019
Orbit: 407 x 418 km, 51.6° (Epoch: 24 June)

Event Time Altitude Azimuth Distance (km) Brightness Sun altitude
Rises 23:20:27 0° 271° (W) 2,353 0.6 -13.1°
Reaches altitude 10° 23:22:35 10° 276° (W) 1,493 -0.4 -13.3°
Maximum altitude 23:25:51 51° 354° (N) 536 -2.9 -13.6°
Drops below altitude 10° 23:29:09 10° 72° (ENE) 1,502 -1.1 -13.9°
Enters shadow 23:31:04 - 77° (ENE) 2,271 -0.2 -14.1°
